• In Deutschland
  • Länderverzeichnis
  • Für 7 Tage
  • Wassertemperatur
  • Satellitenkarten
  • Wetterkarte
  • Widgets
  • user-avatar
    Anmelden

    Stündliche Wetter Naftalan

    Heute, 31 März, Freitag

    Zeit Temperatur Niederschläge Wind Luftdruck Luftfeuchtigkeit
    00:00 +9°C° 0 mm 2 m/S 764 mmHg 80%
    01:00 +9°C° 0 mm 2 m/S 764 mmHg 79%
    02:00 +9°C° 0 mm 2 m/S 764 mmHg 79%
    03:00 +9°C° 0 mm 2 m/S 764 mmHg 78%
    04:00 +9°C° 0 mm 3 m/S 764 mmHg 77%
    05:00 +10°C° 0 mm 3 m/S 765 mmHg 77%
    06:00 +10°C° 0 mm 3 m/S 765 mmHg 76%
    07:00 +12°C° 0 mm 3 m/S 766 mmHg 65%
    08:00 +16°C° 0 mm 3 m/S 766 mmHg 54%
    09:00 +18°C° 0 mm 3 m/S 767 mmHg 43%
    10:00 +19°C° 0 mm 5 m/S 767 mmHg 43%
    11:00 +20°C° 0 mm 7 m/S 768 mmHg 44%
    12:00 +19°C° 0 mm 9 m/S 768 mmHg 44%
    13:00 +18°C° 0 mm 10 m/S 769 mmHg 48%
    14:00 +16°C° 0 mm 11 m/S 769 mmHg 52%
    15:00 +13°C° 0 mm 11 m/S 770 mmHg 56%
    16:00 +12°C° 0 mm 11 m/S 770 mmHg 59%
    17:00 +9°C° 0 mm 10 m/S 771 mmHg 63%
    18:00 +7°C° 0 mm 10 m/S 772 mmHg 66%
    19:00 +6°C° 0 mm 9 m/S 772 mmHg 66%
    20:00 +6°C° 0 mm 8 m/S 773 mmHg 66%
    21:00 +5°C° 0 mm 8 m/S 773 mmHg 67%
    22:00 +5°C° 0,3 mm 7 m/S 773 mmHg 67%
    23:00 +5°C° 0,3 mm 6 m/S 773 mmHg 68%

    Morgen, 1 April, Samstag

    Zeit Temperatur Niederschläge Wind Luftdruck Luftfeuchtigkeit
    00:00 +4°C° 0,3 mm 6 m/S 773 mmHg 69%
    01:00 +4°C° 0,4 mm 6 m/S 773 mmHg 70%
    02:00 +4°C° 0,4 mm 6 m/S 773 mmHg 71%
    03:00 +4°C° 0,4 mm 6 m/S 772 mmHg 72%
    04:00 +5°C° 0,1 mm 5 m/S 772 mmHg 72%
    05:00 +5°C° 0,1 mm 5 m/S 772 mmHg 73%
    06:00 +5°C° 0,1 mm 4 m/S 772 mmHg 73%
    07:00 +6°C° 0,3 mm 4 m/S 772 mmHg 71%
    08:00 +7°C° 0,3 mm 4 m/S 771 mmHg 70%
    09:00 +8°C° 0,3 mm 3 m/S 771 mmHg 68%
    10:00 +9°C° 0,1 mm 3 m/S 771 mmHg 64%
    11:00 +10°C° 0,1 mm 2 m/S 770 mmHg 61%
    12:00 +12°C° 0,1 mm 2 m/S 769 mmHg 58%
    13:00 +13°C° 0 mm 2 m/S 768 mmHg 57%
    14:00 +14°C° 0 mm 2 m/S 768 mmHg 55%
    15:00 +14°C° 0 mm 2 m/S 767 mmHg 54%
    16:00 +12°C° 0 mm 3 m/S 767 mmHg 60%
    17:00 +11°C° 0 mm 3 m/S 767 mmHg 65%
    18:00 +10°C° 0 mm 3 m/S 767 mmHg 71%
    19:00 +9°C° 0 mm 3 m/S 767 mmHg 75%
    20:00 +8°C° 0 mm 2 m/S 768 mmHg 79%
    21:00 +8°C° 0 mm 1 m/S 768 mmHg 83%
    22:00 +7°C° 0 mm 2 m/S 768 mmHg 84%
    23:00 +7°C° 0 mm 3 m/S 768 mmHg 85%

    übermorgen, 2 April, Sonntag

    Zeit Temperatur Niederschläge Wind Luftdruck Luftfeuchtigkeit
    00:00 +7°C° 0 mm 3 m/S 768 mmHg 86%
    01:00 +6°C° 0 mm 4 m/S 768 mmHg 86%
    02:00 +6°C° 0 mm 4 m/S 768 mmHg 86%
    03:00 +5°C° 0 mm 5 m/S 768 mmHg 86%
    04:00 +6°C° 0,3 mm 5 m/S 768 mmHg 85%
    05:00 +5°C° 0,3 mm 6 m/S 769 mmHg 84%
    06:00 +5°C° 0,3 mm 7 m/S 769 mmHg 84%
    07:00 +5°C° 0,8 mm 7 m/S 770 mmHg 82%
    08:00 +5°C° 0,8 mm 8 m/S 770 mmHg 80%
    09:00 +6°C° 0,8 mm 8 m/S 771 mmHg 78%
    10:00 +6°C° 0,4 mm 8 m/S 771 mmHg 74%
    11:00 +7°C° 0,4 mm 8 m/S 772 mmHg 70%
    12:00 +7°C° 0,4 mm 8 m/S 772 mmHg 66%
    13:00 +9°C° 0,2 mm 8 m/S 772 mmHg 65%
    14:00 +9°C° 0,2 mm 8 m/S 772 mmHg 65%
    15:00 +9°C° 0,2 mm 7 m/S 772 mmHg 64%
    16:00 +8°C° 0,2 mm 7 m/S 773 mmHg 67%
    17:00 +8°C° 0,2 mm 6 m/S 773 mmHg 71%
    18:00 +7°C° 0,2 mm 6 m/S 773 mmHg 75%
    19:00 +7°C° 0,1 mm 5 m/S 774 mmHg 77%
    20:00 +6°C° 0,1 mm 5 m/S 774 mmHg 79%
    21:00 +6°C° 0,1 mm 4 m/S 774 mmHg 81%
    22:00 +6°C° 0,1 mm 4 m/S 774 mmHg 82%
    23:00 +6°C° 0,1 mm 4 m/S 774 mmHg 83%

    3 April, Montag

    Zeit Temperatur Niederschläge Wind Luftdruck Luftfeuchtigkeit
    00:00 +6°C° 0,1 mm 4 m/S 773 mmHg 84%
    01:00 +6°C° 0 mm 4 m/S 773 mmHg 83%
    02:00 +6°C° 0 mm 4 m/S 773 mmHg 83%
    03:00 +6°C° 0 mm 4 m/S 773 mmHg 82%
    04:00 +5°C° 0 mm 4 m/S 773 mmHg 83%
    05:00 +5°C° 0 mm 4 m/S 773 mmHg 83%
    06:00 +4°C° 0 mm 4 m/S 773 mmHg 84%
    07:00 +6°C° 0 mm 4 m/S 773 mmHg 77%
    08:00 +7°C° 0 mm 4 m/S 773 mmHg 70%
    09:00 +10°C° 0 mm 4 m/S 773 mmHg 62%
    10:00 +11°C° 0 mm 4 m/S 772 mmHg 57%
    11:00 +12°C° 0 mm 4 m/S 772 mmHg 53%
    12:00 +13°C° 0 mm 4 m/S 772 mmHg 48%
    13:00 +13°C° 0 mm 4 m/S 772 mmHg 48%
    14:00 +13°C° 0 mm 4 m/S 772 mmHg 48%
    15:00 +13°C° 0 mm 4 m/S 771 mmHg 48%
    16:00 +12°C° 0 mm 3 m/S 772 mmHg 53%
    17:00 +10°C° 0 mm 3 m/S 772 mmHg 58%
    18:00 +9°C° 0 mm 3 m/S 772 mmHg 64%
    19:00 +8°C° 0 mm 2 m/S 772 mmHg 67%
    20:00 +7°C° 0 mm 2 m/S 772 mmHg 71%
    21:00 +8°C° 0 mm 1 m/S 773 mmHg 75%
    22:00 +7°C° 0 mm 1 m/S 772 mmHg 77%
    23:00 +7°C° 0 mm 1 m/S 772 mmHg 79%

    4 April, Dienstag

    Zeit Temperatur Niederschläge Wind Luftdruck Luftfeuchtigkeit
    00:00 +7°C° 0 mm 1 m/S 772 mmHg 81%
    01:00 +6°C° 0 mm 1 m/S 772 mmHg 82%
    02:00 +6°C° 0 mm 1 m/S 771 mmHg 83%
    03:00 +5°C° 0 mm 1 m/S 771 mmHg 85%
    04:00 +6°C° 0 mm 1 m/S 771 mmHg 84%
    05:00 +6°C° 0 mm 1 m/S 772 mmHg 84%
    06:00 +6°C° 0 mm 1 m/S 772 mmHg 84%
    07:00 +8°C° 0 mm 1 m/S 772 mmHg 73%
    08:00 +11°C° 0 mm 1 m/S 772 mmHg 63%
    09:00 +13°C° 0 mm 1 m/S 772 mmHg 52%
    10:00 +14°C° 0 mm 1 m/S 772 mmHg 49%
    11:00 +16°C° 0 mm 1 m/S 772 mmHg 46%
    12:00 +18°C° 0 mm 1 m/S 771 mmHg 43%
    13:00 +17°C° 0 mm 2 m/S 771 mmHg 44%
    14:00 +17°C° 0 mm 3 m/S 771 mmHg 45%
    15:00 +18°C° 0 mm 4 m/S 771 mmHg 46%
    16:00 +15°C° 0 mm 4 m/S 771 mmHg 53%
    17:00 +13°C° 0 mm 5 m/S 771 mmHg 61%
    18:00 +10°C° 0 mm 5 m/S 771 mmHg 68%
    19:00 +9°C° 0 mm 5 m/S 772 mmHg 69%
    20:00 +9°C° 0 mm 5 m/S 772 mmHg 70%
    21:00 +8°C° 0 mm 5 m/S 772 mmHg 70%
    22:00 +8°C° 0 mm 4 m/S 772 mmHg 70%
    23:00 +8°C° 0 mm 4 m/S 772 mmHg 70%

    5 April, Mittwoch

    Zeit Temperatur Niederschläge Wind Luftdruck Luftfeuchtigkeit
    00:00 +7°C° 0 mm 4 m/S 772 mmHg 69%
    01:00 +7°C° 0 mm 4 m/S 772 mmHg 70%
    02:00 +7°C° 0 mm 4 m/S 772 mmHg 71%
    03:00 +7°C° 0 mm 4 m/S 772 mmHg 73%
    04:00 +7°C° 0 mm 4 m/S 772 mmHg 74%
    05:00 +7°C° 0 mm 4 m/S 772 mmHg 75%
    06:00 +7°C° 0 mm 4 m/S 772 mmHg 76%
    07:00 +11°C° 0 mm 4 m/S 772 mmHg 67%
    08:00 +13°C° 0 mm 5 m/S 772 mmHg 59%
    09:00 +16°C° 0 mm 5 m/S 772 mmHg 50%
    10:00 +17°C° 0 mm 5 m/S 772 mmHg 47%
    11:00 +19°C° 0 mm 6 m/S 772 mmHg 44%
    12:00 +20°C° 0 mm 6 m/S 771 mmHg 42%
    13:00 +19°C° 0 mm 6 m/S 771 mmHg 43%
    14:00 +19°C° 0 mm 6 m/S 770 mmHg 44%
    15:00 +18°C° 0 mm 7 m/S 770 mmHg 45%
    16:00 +16°C° 0 mm 7 m/S 770 mmHg 52%
    17:00 +14°C° 0 mm 7 m/S 769 mmHg 58%
    18:00 +11°C° 0 mm 6 m/S 769 mmHg 64%
    19:00 +10°C° 0 mm 6 m/S 769 mmHg 69%
    20:00 +10°C° 0 mm 6 m/S 769 mmHg 74%
    21:00 +9°C° 0 mm 6 m/S 769 mmHg 79%
    22:00 +8°C° 0 mm 5 m/S 769 mmHg 82%
    23:00 +8°C° 0 mm 5 m/S 768 mmHg 85%
    Mehr zeigen